timestamp,surface_pressure_avg,surface_temp_avg,battery_voltage,lat,long
2021-07-31 00:09:01+00:00,246.9397,17.57,12.89,47.84626,-54.09684
2021-07-31 00:19:01+00:00,245.4564,17.53,12.73,47.84626,-54.09684
2021-07-31 00:29:01+00:00,248.9081,17.54,12.73,47.84626,-54.09684
2021-07-31 00:39:01+00:00,255.1631,17.55,12.73,47.84626,-54.09684
2021-07-31 00:49:01+00:00,258.2947,17.58,12.73,47.84626,-54.09684
2021-07-31 00:59:01+00:00,257.4214,17.57,12.73,47.84626,-54.09684
2021-07-31 01:09:01+00:00,259.3547,17.57,12.73,47.84626,-54.09684
2021-07-31 01:19:01+00:00,267.7414,17.56,12.73,47.84626,-54.09684
2021-07-31 01:29:01+00:00,270.0864,17.57,12.73,47.84626,-54.09684
2021-07-31 01:39:01+00:00,268.2431,17.58,12.73,47.84626,-54.09684
2021-07-31 01:49:01+00:00,273.0014,17.57,12.73,47.84626,-54.09684
2021-07-31 01:59:01+00:00,277.613,17.56,12.73,47.84626,-54.09684
2021-07-31 02:09:01+00:00,286.1981,17.56,12.73,47.84626,-54.09684
2021-07-31 02:19:00+00:00,294.1897,17.55,12.73,47.84626,-54.09684
2021-07-31 02:29:00+00:00,299.0297,17.51,12.73,47.84626,-54.09684
2021-07-31 02:39:00+00:00,294.9497,17.52,12.73,47.84626,-54.09684
2021-07-31 02:49:00+00:00,304.0164,17.56,12.73,47.84626,-54.09684
2021-07-31 02:59:00+00:00,317.1897,17.57,12.73,47.84626,-54.09684
2021-07-31 03:09:00+00:00,323.3646,17.57,12.73,47.84626,-54.09684
2021-07-31 03:19:01+00:00,320.2047,17.59,12.73,47.84626,-54.09684
2021-07-31 03:29:01+00:00,328.1329,17.6,12.73,47.84626,-54.09684
2021-07-31 03:39:01+00:00,335.1797,17.6,12.73,47.84626,-54.09684
2021-07-31 03:49:01+00:00,328.3979,17.6,12.73,47.84626,-54.09684
2021-07-31 03:59:01+00:00,327.4979,17.6,12.73,47.84626,-54.09684
2021-07-31 04:09:01+00:00,331.218,17.59,12.73,47.84626,-54.09684
2021-07-31 04:19:00+00:00,334.0897,17.57,12.73,47.84626,-54.09684
2021-07-31 04:29:00+00:00,325.0646,17.51,12.73,47.84626,-54.09684
2021-07-31 04:39:00+00:00,327.7297,17.5,12.73,47.84626,-54.09684
2021-07-31 04:49:00+00:00,330.8180000000001,17.49,12.73,47.84626,-54.09684
2021-07-31 04:59:00+00:00,326.993,17.5,12.73,47.84626,-54.09684
2021-07-31 05:09:00+00:00,326.1196,17.56,12.73,47.84626,-54.09684
2021-07-31 05:19:00+00:00,330.9014,17.59,12.73,47.84626,-54.09684
2021-07-31 05:29:00+00:00,333.9512,17.59,12.73,47.84626,-54.09684
2021-07-31 05:39:00+00:00,332.0680000000001,17.6,12.73,47.84626,-54.09684
2021-07-31 05:49:00+00:00,325.9146,17.6,12.73,47.84626,-54.09684
2021-07-31 05:59:00+00:00,325.913,17.6,12.73,47.84626,-54.09684
2021-07-31 06:09:00+00:00,323.2863,17.5,12.73,47.84626,-54.09684
2021-07-31 06:19:00+00:00,319.7247,17.55,12.73,47.84626,-54.09684
2021-07-31 06:29:00+00:00,315.3913,17.57,12.73,47.84626,-54.09684
2021-07-31 06:39:00+00:00,310.488,17.5,12.73,47.84626,-54.09684
2021-07-31 06:49:00+00:00,302.6746,17.54,12.73,47.84626,-54.09684
2021-07-31 06:59:00+00:00,297.408,17.5,12.73,47.84626,-54.09684
2021-07-31 07:09:00+00:00,295.9748,17.5,12.73,47.84626,-54.09684
2021-07-31 07:19:01+00:00,293.8514,17.49,12.65,47.84626,-54.09684
2021-07-31 07:29:01+00:00,289.5647,17.5,12.65,47.84626,-54.09684
2021-07-31 07:39:01+00:00,288.8547,17.5,12.65,47.84626,-54.09684
2021-07-31 07:49:01+00:00,280.658,17.5,12.65,47.84626,-54.09684
2021-07-31 07:59:01+00:00,273.2347,17.54,12.65,47.84626,-54.09684
2021-07-31 08:09:01+00:00,265.783,17.5,12.65,47.84626,-54.09684
2021-07-31 08:19:00+00:00,262.0114,17.5,12.65,47.84626,-54.09684
2021-07-31 08:29:00+00:00,250.7931,17.5,12.65,47.84626,-54.09684
2021-07-31 08:39:00+00:00,242.498,17.5,12.65,47.84626,-54.09684
2021-07-31 08:49:00+00:00,239.373,17.5,12.65,47.84626,-54.09684
2021-07-31 08:59:00+00:00,236.5098,17.5,12.65,47.84626,-54.09684
2021-07-31 09:09:00+00:00,228.6264,17.5,12.65,47.84626,-54.09684
2021-07-31 09:19:01+00:00,226.8181,17.5,12.65,47.84626,-54.09684
2021-07-31 09:29:01+00:00,224.7698,17.5,12.65,47.84626,-54.09684
2021-07-31 09:39:01+00:00,219.7431,17.5,12.65,47.84626,-54.09684
2021-07-31 09:49:01+00:00,212.2014,17.52,12.65,47.84626,-54.09684
2021-07-31 09:59:01+00:00,216.8365,17.5,12.65,47.84626,-54.09684
2021-07-31 10:09:01+00:00,224.1114,17.5,12.65,47.84626,-54.09684
2021-07-31 10:19:01+00:00,215.8732,17.5,12.65,47.84626,-54.09684
2021-07-31 10:29:01+00:00,207.6648,17.6,12.65,47.84626,-54.09684
2021-07-31 10:39:01+00:00,206.6214,17.6,12.65,47.84626,-54.09684
2021-07-31 10:49:01+00:00,211.0648,17.59,12.65,47.84626,-54.09684
2021-07-31 10:59:01+00:00,225.1081,17.5,12.65,47.84626,-54.09684
2021-07-31 11:09:01+00:00,230.1914,17.49,12.65,47.84626,-54.09684
2021-07-31 11:19:01+00:00,230.3814,17.51,12.81,47.84626,-54.09684
2021-07-31 11:29:01+00:00,236.4447,17.59,12.81,47.84626,-54.09684
2021-07-31 11:39:01+00:00,244.6564,17.57,12.81,47.84626,-54.09684
2021-07-31 11:49:01+00:00,248.2498,17.5,12.81,47.84626,-54.09684
2021-07-31 11:59:01+00:00,250.3281,17.5,12.81,47.84626,-54.09684
2021-07-31 12:09:01+00:00,251.8448,17.5,12.81,47.84626,-54.09684
2021-07-31 12:19:01+00:00,249.4864,17.54,12.73,47.84626,-54.09684
2021-07-31 12:29:01+00:00,247.3647,17.57,12.73,47.84626,-54.09684
2021-07-31 12:39:01+00:00,252.1881,17.58,12.73,47.84626,-54.09684
2021-07-31 12:49:01+00:00,253.4648,17.58,12.73,47.84626,-54.09684
2021-07-31 12:59:01+00:00,256.5514,17.59,12.73,47.84626,-54.09684
2021-07-31 13:09:01+00:00,262.7248,17.57,12.73,47.84626,-54.09684
2021-07-31 13:19:01+00:00,268.1964,17.5,12.81,47.84626,-54.09684
2021-07-31 13:29:01+00:00,270.6548,17.5,12.81,47.84626,-54.09684
2021-07-31 13:39:01+00:00,274.1464,17.5,12.81,47.84626,-54.09684
2021-07-31 13:49:01+00:00,272.4798,17.4,12.81,47.84626,-54.09684
2021-07-31 13:59:01+00:00,267.4081,17.4,12.81,47.84626,-54.09684
2021-07-31 14:09:01+00:00,271.1814,17.4,12.81,47.84626,-54.09684
2021-07-31 14:19:01+00:00,283.9064,17.4,13.05,47.84626,-54.09684
2021-07-31 14:29:01+00:00,290.403,17.4,13.05,47.84626,-54.09684
2021-07-31 14:39:01+00:00,287.9514,17.4,13.05,47.84626,-54.09684
2021-07-31 14:49:01+00:00,290.608,17.4,13.05,47.84626,-54.09684
2021-07-31 14:59:01+00:00,304.8846,17.38,13.05,47.84626,-54.09684
2021-07-31 15:09:01+00:00,311.2747,17.36,13.05,47.84626,-54.09684
2021-07-31 15:19:01+00:00,308.2714,17.38,13.21,47.84626,-54.09684
2021-07-31 15:29:01+00:00,314.4914,17.32,13.21,47.84626,-54.09684
2021-07-31 15:39:01+00:00,323.5613,17.3,13.21,47.84626,-54.09684
2021-07-31 15:49:01+00:00,322.5714,17.37,13.21,47.84626,-54.09684
2021-07-31 15:59:01+00:00,321.3447,17.4,13.21,47.84626,-54.09684
2021-07-31 16:09:01+00:00,328.5363,17.38,13.21,47.84626,-54.09684
2021-07-31 16:19:01+00:00,328.7747,17.4,13.6,47.84626,-54.09684
2021-07-31 16:29:01+00:00,324.723,17.48,13.6,47.84626,-54.09684
2021-07-31 16:39:01+00:00,328.6846,17.5,13.6,47.84626,-54.09684
2021-07-31 16:49:01+00:00,331.9412,17.5,13.6,47.84626,-54.09684
2021-07-31 16:59:01+00:00,329.7264,17.5,13.6,47.84626,-54.09684
2021-07-31 17:09:01+00:00,327.4297,17.51,13.6,47.84626,-54.09684
2021-07-31 17:19:01+00:00,327.7646,17.57,14.08,47.84626,-54.09684
2021-07-31 17:29:01+00:00,328.048,17.6,14.08,47.84626,-54.09684
2021-07-31 17:39:01+00:00,326.5829,17.6,14.08,47.84626,-54.09684
2021-07-31 17:49:01+00:00,327.373,17.6,14.08,47.84626,-54.09684
2021-07-31 17:59:01+00:00,325.7614,17.59,14.08,47.84626,-54.09684
2021-07-31 18:09:01+00:00,324.9313,17.59,14.08,47.84626,-54.09684
2021-07-31 18:19:01+00:00,325.8664,17.6,14.0,47.84626,-54.09684
2021-07-31 18:29:01+00:00,324.4214,17.6,14.0,47.84626,-54.09684
2021-07-31 18:39:01+00:00,322.8663,17.6,14.0,47.84626,-54.09684
2021-07-31 18:49:01+00:00,322.0947,17.6,14.0,47.84626,-54.09684
2021-07-31 18:59:01+00:00,322.8247,17.5,14.0,47.84626,-54.09684
2021-07-31 19:09:01+00:00,321.7413,17.5,14.0,47.84626,-54.09684
2021-07-31 19:19:01+00:00,314.758,17.4,14.0,47.84626,-54.09684
2021-07-31 19:29:01+00:00,310.6113,17.4,14.0,47.84626,-54.09684
2021-07-31 19:39:01+00:00,308.6763,17.38,14.0,47.84626,-54.09684
2021-07-31 19:49:01+00:00,302.5264,17.36,14.0,47.84626,-54.09684
2021-07-31 19:59:01+00:00,295.2614,17.35,14.0,47.84626,-54.09684
2021-07-31 20:09:01+00:00,287.4514,17.37,14.0,47.84626,-54.09684
2021-07-31 20:19:01+00:00,279.8897,17.39,13.84,47.84626,-54.09684
2021-07-31 20:29:01+00:00,277.3448,17.4,13.84,47.84626,-54.09684
2021-07-31 20:39:01+00:00,273.1347,17.4,13.84,47.84626,-54.09684
2021-07-31 20:49:01+00:00,265.2414,17.43,13.84,47.84626,-54.09684
2021-07-31 20:59:01+00:00,257.2347,17.5,13.84,47.84626,-54.09684
2021-07-31 21:09:01+00:00,254.7815,17.53,13.84,47.84626,-54.09684
2021-07-31 21:19:01+00:00,250.9914,17.59,13.6,47.84626,-54.09684
2021-07-31 21:29:01+00:00,243.2397,17.6,13.6,47.84626,-54.09684
2021-07-31 21:39:01+00:00,235.5781,17.61,13.6,47.84626,-54.09684
2021-07-31 21:49:01+00:00,235.7897,17.64,13.6,47.84626,-54.09684
2021-07-31 21:59:01+00:00,236.8381,17.64,13.6,47.84626,-54.09684
2021-07-31 22:09:01+00:00,228.4748,17.65,13.6,47.84626,-54.09684
2021-07-31 22:19:01+00:00,222.9998,17.6,13.37,47.84626,-54.09684
2021-07-31 22:29:01+00:00,227.4931,17.55,13.37,47.84626,-54.09684
2021-07-31 22:39:01+00:00,230.1131,17.54,13.37,47.84626,-54.09684
2021-07-31 22:49:01+00:00,228.4747,17.52,13.37,47.84626,-54.09684
2021-07-31 22:59:01+00:00,229.6448,17.5,13.37,47.84626,-54.09684
2021-07-31 23:09:01+00:00,233.9882,17.51,13.37,47.84626,-54.09684
2021-07-31 23:19:01+00:00,233.3314,17.51,13.05,47.84626,-54.09684
2021-07-31 23:29:01+00:00,228.7881,17.5,13.05,47.84626,-54.09684
2021-07-31 23:39:01+00:00,229.1431,17.5,13.05,47.84626,-54.09684
2021-07-31 23:49:01+00:00,235.4297,17.5,13.05,47.84626,-54.09684
2021-07-31 23:59:01+00:00,234.5581,17.5,13.05,47.84626,-54.09684
